Location: Berg
(47.2344°N, 9.5296°E)
Time: 17:17:39
(UTC+00:00)

Aureole 3 Rocket - Pass Details

Date: 24 January 2021
Orbit: 398 x 1740 km, 82.5° (Epoch: 28 February)

Event Time Altitude Azimuth Distance (km) Brightness Sun altitude
Rises 17:38:35 0° 358° (N) 2,324 5.9 -14.6°
Reaches altitude 10° 17:40:36 10° 8° (N) 1,478 4.8 -14.9°
Maximum altitude 17:43:30 36° 78° (ENE) 712 2.8 -15.4°
Drops below altitude 10° 17:46:48 10° 147° (SSE) 1,692 5.1 -16.0°
Sets 17:49:15 0° 155° (SSE) 2,727 6.2 -16.4°
